Location: Newark
(49.8348°N, 24.0280°E)
Time: 14:57:32
(UTC+00:00)

S-56A Canister/Altair - Pass Details

Date: 30 January 2020
Orbit: 633 x 2499 km, 38.9° (Epoch: 17 February)

Event Time Altitude Azimuth Distance (km) Brightness Sun altitude
Rises 15:55:28 0° 213° (SSW) 5,069 12.7 -6.9°
Reaches altitude 10° 16:00:21 10° 198° (SSW) 3,696 11.6 -7.7°
Maximum altitude 16:06:09 19° 158° (SSE) 2,587 10.2 -8.6°
Drops below altitude 10° 16:10:45 10° 116° (ESE) 2,819 10.0 -9.3°
Enters shadow 16:12:07 - 107° (ESE) 3,092 10.1 -9.5°
Sets 16:13:49 0° 98° (E) 3,519 - -9.8°
